contact:dominique.lefevre@mio.osupytheas.fr, maurice.libes@osupytheas.fr, didier.mallarino@osupytheas.fr
Project:EMSO http://www.emso-fr.org/EMSO-France
Depth: 2436.0 m
Title:EMSO Ligure Ouest : Data MII capteur AQUADOPP
Date,Latitude,Longitude,X_East,Y_North,Z_Up,Amplitude_X,Amplitude_Y,Amplitude_Z,Batterie,SoundSpeed,Heading,Pitch,Roll,Pressure,TIS,Speed,Direction
, degrees North, degrees East, m.s-1, m.s-1,m.s-1, 1, 1, 1, Volt, m.s-1, degree, degree, degree, dbar, degree_C, m.s-1, degree
2020-01-25T00:04:03,42.805,6.029,-0.022,0.002,-0.036,112.0,115.0,109.0,13.4,1505.3,327.2,-0.8,1.8,2470.188,13.32,0.022,275.2
2020-01-25T00:07:03,42.805,6.029,-0.034,0.008,-0.018,112.0,115.0,108.0,13.4,1505.3,325.2,-0.7,1.9,2470.162,13.33,0.034,283.2
2020-01-25T00:10:03,42.805,6.029,-0.01,0.035,0.031,114.0,115.0,106.0,13.4,1505.3,325.9,-0.8,1.8,2470.165,13.33,0.036,344.1
2020-01-25T00:13:03,42.805,6.029,-0.003,0.02,-0.033,112.0,114.0,108.0,13.3,1505.3,325.0,-0.7,1.8,2470.134,13.33,0.02,351.5
2020-01-25T00:16:03,42.805,6.029,-0.034,0.01,0.039,112.0,114.0,107.0,13.4,1505.3,326.6,-0.7,1.9,2470.202,13.33,0.035,286.4
2020-01-25T00:19:03,42.805,6.029,-0.036,-0.008,0.043,112.0,114.0,107.0,13.4,1505.3,325.1,-0.7,1.8,2470.144,13.33,0.036,257.5
2020-01-25T00:22:03,42.805,6.029,-0.022,0.024,-0.015,111.0,116.0,107.0,13.4,1505.3,324.8,-0.7,1.8,2470.147,13.33,0.032,317.5
2020-01-25T00:25:03,42.805,6.029,-0.012,0.029,0.023,112.0,115.0,106.0,13.3,1505.3,324.1,-0.7,1.8,2470.154,13.33,0.031,337.5
2020-01-25T00:28:03,42.805,6.029,-0.01,0.027,0.011,111.0,115.0,107.0,13.4,1505.4,328.3,-0.7,1.8,2470.156,13.34,0.028,339.7
2020-01-25T00:31:03,42.805,6.029,-0.019,0.022,-0.013,113.0,115.0,108.0,13.4,1505.4,325.9,-0.7,1.9,2470.084,13.34,0.029,319.2
2020-01-25T00:34:03,42.805,6.029,-0.03,0.021,-0.016,111.0,114.0,108.0,13.3,1505.4,328.0,-0.7,1.8,2470.1,13.34,0.036,305.0
2020-01-25T00:37:03,42.805,6.029,-0.014,0.004,-0.006,113.0,114.0,107.0,13.4,1505.4,325.4,-0.7,1.8,2470.13,13.34,0.014,285.9
2020-01-25T00:40:03,42.805,6.029,-0.012,0.02,0.008,113.0,114.0,105.0,13.4,1505.4,328.6,-0.7,1.8,2470.099,13.34,0.023,329.0
2020-01-25T00:43:03,42.805,6.029,-0.039,0.01,-0.03,111.0,114.0,108.0,13.4,1505.4,327.4,-0.7,1.8,2470.12,13.34,0.04,284.4
2020-01-25T00:46:03,42.805,6.029,-0.001,0.012,-0.019,113.0,114.0,106.0,13.4,1505.4,327.6,-0.7,1.8,2470.127,13.34,0.012,355.2
2020-01-25T00:49:03,42.805,6.029,-0.017,0.017,-0.008,112.0,114.0,107.0,13.4,1505.4,327.2,-0.7,1.8,2470.117,13.34,0.024,315.0
2020-01-25T00:52:03,42.805,6.029,-0.013,0.02,-0.018,111.0,114.0,108.0,13.4,1505.4,328.7,-0.8,1.8,2470.132,13.34,0.023,327.0
2020-01-25T00:55:03,42.805,6.029,-0.036,0.008,-0.009,113.0,114.0,107.0,13.4,1505.4,323.6,-0.6,1.8,2470.1,13.34,0.036,282.5
2020-01-25T00:58:03,42.805,6.029,-0.024,0.021,-0.01,111.0,113.0,107.0,13.3,1505.4,324.2,-0.7,1.8,2470.107,13.34,0.031,311.2
2020-01-25T01:04:03,42.805,6.029,-0.004,0.0,-0.006,113.0,116.0,108.0,13.3,1505.3,328.4,-0.7,1.8,2470.144,13.32,0.004,270.0
2020-01-25T01:07:03,42.805,6.029,-0.008,0.015,0.01,112.0,114.0,109.0,13.4,1505.3,325.6,-0.7,1.9,2470.129,13.33,0.017,331.9
2020-01-25T01:10:03,42.805,6.029,-0.012,0.032,0.02,111.0,113.0,107.0,13.4,1505.3,324.0,-0.7,1.8,2470.146,13.33,0.034,339.4
2020-01-25T01:13:03,42.805,6.029,-0.004,-0.004,0.008,112.0,113.0,106.0,13.4,1505.3,325.7,-0.7,1.8,2470.125,13.33,0.005,225.0
2020-01-25T01:16:03,42.805,6.029,-0.008,0.014,0.018,110.0,114.0,108.0,13.3,1505.3,327.2,-0.7,1.8,2470.1,13.33,0.016,330.3
2020-01-25T01:19:03,42.805,6.029,-0.006,0.007,-0.015,111.0,113.0,106.0,13.4,1505.3,325.2,-0.7,1.8,2470.042,13.33,0.009,319.4
2020-01-25T01:22:03,42.805,6.029,-0.013,0.033,0.009,112.0,114.0,107.0,13.4,1505.4,323.7,-0.7,1.8,2470.115,13.34,0.035,338.5
2020-01-25T01:25:03,42.805,6.029,0.0,0.012,0.01,109.0,114.0,106.0,13.4,1505.4,327.3,-0.7,1.8,2470.1,13.34,0.012,0.0
2020-01-25T01:28:03,42.805,6.029,0.001,0.033,-0.003,112.0,114.0,106.0,13.4,1505.4,328.2,-0.7,1.8,2470.123,13.34,0.033,1.7
2020-01-25T01:31:03,42.805,6.029,-0.045,0.0,-0.016,111.0,114.0,106.0,13.3,1505.4,327.5,-0.7,1.8,2470.13,13.34,0.045,270.0
2020-01-25T01:34:03,42.805,6.029,-0.012,0.009,-0.023,112.0,114.0,106.0,13.4,1505.4,327.8,-0.7,1.8,2470.131,13.34,0.015,306.9
2020-01-25T01:37:03,42.805,6.029,-0.022,0.024,0.011,109.0,114.0,107.0,13.4,1505.4,327.7,-0.7,1.8,2470.151,13.34,0.032,317.5
2020-01-25T01:40:03,42.805,6.029,-0.013,0.033,-0.015,111.0,113.0,108.0,13.4,1505.4,326.6,-0.7,1.9,2470.132,13.34,0.035,338.5
2020-01-25T01:43:03,42.805,6.029,-0.03,0.014,-0.014,110.0,115.0,107.0,13.4,1505.4,326.8,-0.7,1.8,2470.12,13.34,0.033,295.0
2020-01-25T01:46:03,42.805,6.029,-0.015,0.02,-0.018,111.0,114.0,107.0,13.4,1505.4,324.3,-0.8,1.8,2470.085,13.34,0.025,323.1
2020-01-25T01:49:03,42.805,6.029,0.002,0.0,0.003,112.0,115.0,107.0,13.4,1505.4,327.0,-0.7,1.8,2470.121,13.34,0.002,90.0
2020-01-25T01:52:03,42.805,6.029,-0.01,0.008,0.008,113.0,114.0,106.0,13.3,1505.4,328.6,-0.7,1.8,2470.101,13.34,0.012,308.7
2020-01-25T01:55:03,42.805,6.029,-0.011,0.0,0.003,111.0,114.0,108.0,13.4,1505.4,323.3,-0.7,1.8,2470.108,13.34,0.011,270.0
2020-01-25T01:58:03,42.805,6.029,-0.012,0.023,0.0,113.0,115.0,108.0,13.4,1505.4,326.4,-0.7,1.8,2470.107,13.34,0.025,332.4
2020-01-25T02:04:03,42.805,6.029,-0.034,0.001,-0.046,110.0,113.0,107.0,13.4,1505.3,323.3,-0.7,1.8,2470.103,13.32,0.034,271.7
2020-01-25T02:07:03,42.805,6.029,-0.005,0.026,0.0,112.0,113.0,106.0,13.4,1505.3,325.5,-0.8,1.8,2470.122,13.32,0.026,349.1
2020-01-25T02:10:03,42.805,6.029,-0.009,0.001,-0.01,112.0,114.0,106.0,13.4,1505.3,322.9,-0.7,1.9,2470.126,13.33,0.009,276.3
2020-01-25T02:13:03,42.805,6.029,-0.022,0.002,-0.001,112.0,114.0,107.0,13.3,1505.3,327.3,-0.7,1.8,2470.138,13.33,0.022,275.2
2020-01-25T02:16:03,42.805,6.029,0.003,0.001,-0.008,110.0,115.0,107.0,13.4,1505.3,325.4,-0.7,1.8,2470.164,13.33,0.003,71.6
2020-01-25T02:19:03,42.805,6.029,-0.014,0.011,-0.013,113.0,114.0,107.0,13.4,1505.3,328.2,-0.7,1.8,2470.163,13.33,0.017,308.2
2020-01-25T02:22:03,42.805,6.029,-0.045,0.002,-0.023,112.0,115.0,106.0,13.3,1505.3,325.9,-0.7,1.8,2470.13,13.33,0.045,272.5
2020-01-25T02:25:03,42.805,6.029,-0.014,0.021,-0.013,112.0,116.0,106.0,13.4,1505.3,324.2,-0.7,1.8,2470.09,13.33,0.025,326.3
2020-01-25T02:28:03,42.805,6.029,-0.007,0.007,0.005,112.0,115.0,107.0,13.4,1505.4,325.2,-0.7,1.8,2470.094,13.34,0.009,315.0
2020-01-25T02:31:03,42.805,6.029,-0.042,-0.011,-0.03,113.0,116.0,109.0,13.4,1505.4,323.2,-0.7,1.9,2470.114,13.34,0.043,255.3
2020-01-25T02:34:03,42.805,6.029,-0.005,0.008,-0.01,114.0,115.0,108.0,13.3,1505.4,325.9,-0.7,1.9,2470.148,13.34,0.009,328.0
2020-01-25T02:37:03,42.805,6.029,-0.014,0.028,0.014,114.0,115.0,108.0,13.4,1505.4,323.2,-0.7,1.8,2470.167,13.34,0.031,333.4
2020-01-25T02:40:03,42.805,6.029,-0.039,0.004,-0.004,113.0,114.0,108.0,13.4,1505.4,327.2,-0.7,1.8,2470.095,13.34,0.039,275.9
2020-01-25T02:43:03,42.805,6.029,-0.003,0.031,0.0,113.0,115.0,109.0,13.3,1505.4,325.3,-0.7,1.8,2470.12,13.34,0.031,354.5
2020-01-25T02:46:03,42.805,6.029,-0.005,0.01,0.0,112.0,115.0,109.0,13.3,1505.4,327.6,-0.7,1.8,2470.179,13.34,0.011,333.4
2020-01-25T02:49:03,42.805,6.029,-0.015,0.005,-0.014,114.0,113.0,109.0,13.3,1505.3,326.8,-0.7,1.8,2470.101,13.33,0.015,288.4
2020-01-25T02:52:03,42.805,6.029,-0.024,0.001,-0.011,112.0,113.0,107.0,13.4,1505.3,327.0,-0.7,1.9,2470.127,13.33,0.024,272.4
2020-01-25T02:55:03,42.805,6.029,-0.001,-0.004,-0.031,112.0,113.0,107.0,13.3,1505.4,325.3,-0.7,1.8,2470.103,13.34,0.004,194.0
2020-01-25T02:58:03,42.805,6.029,-0.028,0.026,-0.008,111.0,114.0,108.0,13.3,1505.4,326.8,-0.7,1.9,2470.126,13.34,0.038,312.9
2020-01-25T03:04:03,42.805,6.029,-0.015,0.029,0.001,114.0,115.0,106.0,13.4,1505.3,324.8,-0.7,1.8,2470.185,13.32,0.032,332.6
2020-01-25T03:07:03,42.805,6.029,-0.015,0.0,0.007,113.0,115.0,108.0,13.4,1505.3,326.5,-0.7,1.8,2470.169,13.32,0.015,270.0
2020-01-25T03:10:03,42.805,6.029,-0.03,0.027,-0.004,112.0,114.0,110.0,13.4,1505.3,327.0,-0.7,1.9,2470.154,13.33,0.04,312.0
2020-01-25T03:13:03,42.805,6.029,0.008,0.0,-0.004,113.0,114.0,108.0,13.4,1505.3,326.8,-0.7,1.9,2470.142,13.33,0.008,90.0
2020-01-25T03:16:03,42.805,6.029,0.001,0.011,-0.005,113.0,114.0,107.0,13.3,1505.3,323.3,-0.7,1.8,2470.128,13.33,0.011,5.2
2020-01-25T03:19:03,42.805,6.029,-0.013,0.0,-0.007,112.0,113.0,108.0,13.3,1505.3,323.0,-0.8,1.9,2470.181,13.33,0.013,270.0
2020-01-25T03:22:03,42.805,6.029,-0.028,0.011,-0.024,114.0,114.0,108.0,13.4,1505.4,324.2,-0.7,1.9,2470.13,13.34,0.03,291.4
2020-01-25T03:25:03,42.805,6.029,-0.048,0.0,-0.013,112.0,116.0,108.0,13.4,1505.4,325.6,-0.7,1.9,2470.131,13.34,0.048,270.0
2020-01-25T03:28:03,42.805,6.029,-0.002,0.009,-0.023,112.0,114.0,108.0,13.4,1505.4,327.7,-0.7,1.8,2470.147,13.34,0.009,347.5
2020-01-25T03:31:03,42.805,6.029,-0.017,0.02,0.032,110.0,114.0,108.0,13.3,1505.4,326.7,-0.7,1.9,2470.154,13.34,0.026,319.6
2020-01-25T03:34:03,42.805,6.029,-0.007,0.012,0.003,113.0,114.0,107.0,13.4,1505.4,328.4,-0.7,1.8,2470.116,13.34,0.013,329.7
2020-01-25T03:37:03,42.805,6.029,-0.023,0.005,-0.007,111.0,115.0,107.0,13.4,1505.4,326.7,-0.7,1.8,2470.164,13.34,0.023,282.3
2020-01-25T03:40:03,42.805,6.029,-0.008,-0.012,-0.011,112.0,113.0,108.0,13.4,1505.4,328.2,-0.7,1.9,2470.135,13.34,0.014,213.7
2020-01-25T03:43:03,42.805,6.029,-0.008,-0.011,0.041,111.0,114.0,107.0,13.3,1505.4,325.6,-0.7,1.8,2470.133,13.34,0.013,216.0
2020-01-25T03:46:03,42.805,6.029,-0.03,0.026,-0.02,112.0,114.0,108.0,13.4,1505.4,327.9,-0.7,1.8,2470.212,13.34,0.039,310.9
2020-01-25T03:49:03,42.805,6.029,0.005,-0.001,0.003,113.0,115.0,108.0,13.4,1505.4,327.4,-0.7,1.8,2470.153,13.34,0.005,101.3
2020-01-25T03:52:03,42.805,6.029,-0.009,0.003,0.028,113.0,115.0,107.0,13.4,1505.3,327.5,-0.7,1.9,2470.142,13.33,0.009,288.4
2020-01-25T03:55:03,42.805,6.029,-0.007,0.006,-0.003,113.0,115.0,109.0,13.4,1505.3,323.5,-0.7,1.8,2470.198,13.33,0.009,310.6
2020-01-25T03:58:03,42.805,6.029,-0.031,0.006,-0.024,113.0,115.0,107.0,13.4,1505.3,326.9,-0.8,1.8,2470.167,13.33,0.031,281.0
2020-01-25T04:04:03,42.805,6.029,0.0,0.023,0.028,114.0,115.0,108.0,13.4,1505.3,323.2,-0.8,1.8,2470.174,13.31,0.023,0.0
2020-01-25T04:07:03,42.805,6.029,-0.025,0.003,-0.02,112.0,113.0,108.0,13.3,1505.3,325.3,-0.7,1.8,2470.208,13.32,0.025,276.8
2020-01-25T04:10:03,42.805,6.029,-0.024,0.016,-0.02,113.0,115.0,107.0,13.4,1505.3,326.3,-0.7,1.8,2470.239,13.32,0.028,303.7
2020-01-25T04:13:03,42.805,6.029,-0.019,0.007,0.002,114.0,114.0,106.0,13.3,1505.3,324.5,-0.7,1.9,2470.174,13.33,0.02,290.2
2020-01-25T04:16:03,42.805,6.029,-0.03,0.031,-0.008,113.0,116.0,107.0,13.4,1505.3,325.1,-0.6,1.8,2470.19,13.33,0.043,315.9
2020-01-25T04:19:03,42.805,6.029,-0.034,0.024,-0.006,113.0,113.0,108.0,13.4,1505.3,328.3,-0.7,1.8,2470.197,13.33,0.041,305.2
2020-01-25T04:22:03,42.805,6.029,-0.028,0.025,-0.036,114.0,113.0,108.0,13.4,1505.3,324.0,-0.7,1.8,2470.237,13.33,0.037,311.8
2020-01-25T04:25:03,42.805,6.029,-0.016,-0.023,-0.002,113.0,115.0,108.0,13.3,1505.3,326.9,-0.7,1.8,2470.19,13.33,0.028,214.8
2020-01-25T04:28:03,42.805,6.029,-0.023,0.004,0.008,115.0,114.0,108.0,13.4,1505.3,324.6,-0.7,1.8,2470.227,13.33,0.023,279.9
2020-01-25T04:31:03,42.805,6.029,-0.02,0.008,0.008,113.0,114.0,108.0,13.4,1505.3,325.3,-0.7,1.8,2470.196,13.33,0.021,291.8
2020-01-25T04:34:03,42.805,6.029,-0.036,0.021,-0.012,112.0,113.0,108.0,13.4,1505.3,328.2,-0.7,1.8,2470.224,13.33,0.041,300.3
2020-01-25T04:37:03,42.805,6.029,-0.027,0.027,-0.005,111.0,114.0,107.0,13.4,1505.3,324.1,-0.7,1.8,2470.221,13.33,0.038,315.0
2020-01-25T04:40:03,42.805,6.029,-0.017,0.03,-0.01,112.0,115.0,108.0,13.3,1505.3,326.2,-0.7,1.8,2470.234,13.33,0.034,330.5
2020-01-25T04:43:03,42.805,6.029,-0.027,0.016,0.01,114.0,112.0,107.0,13.4,1505.3,324.1,-0.7,1.8,2470.192,13.33,0.031,300.7
2020-01-25T04:46:03,42.805,6.029,-0.051,0.028,-0.023,112.0,114.0,107.0,13.4,1505.3,326.5,-0.7,1.8,2470.234,13.33,0.058,298.8
2020-01-25T04:49:03,42.805,6.029,-0.002,0.023,-0.028,112.0,112.0,107.0,13.4,1505.3,325.4,-0.7,1.8,2470.212,13.33,0.023,355.0
2020-01-25T04:52:03,42.805,6.029,-0.041,0.01,-0.012,110.0,112.0,105.0,13.4,1505.3,327.9,-0.7,1.9,2470.269,13.33,0.042,283.7
2020-01-25T04:55:03,42.805,6.029,-0.045,0.013,-0.015,110.0,113.0,106.0,13.4,1505.3,324.5,-0.7,1.8,2470.226,13.33,0.046,286.1
2020-01-25T04:58:03,42.805,6.029,-0.036,-0.005,-0.02,112.0,114.0,106.0,13.4,1505.3,324.2,-0.7,1.8,2470.231,13.33,0.036,262.1
2020-01-25T05:04:03,42.805,6.029,-0.031,0.009,-0.032,112.0,113.0,106.0,13.3,1505.3,325.6,-0.8,1.8,2470.272,13.31,0.032,286.2
2020-01-25T05:07:03,42.805,6.029,-0.038,0.017,-0.013,112.0,114.0,106.0,13.4,1505.3,327.2,-0.7,1.8,2470.28,13.32,0.041,294.1
2020-01-25T05:10:03,42.805,6.029,-0.011,0.026,-0.015,112.0,112.0,107.0,13.3,1505.3,327.2,-0.7,1.8,2470.284,13.32,0.028,337.1
2020-01-25T05:13:03,42.805,6.029,-0.026,0.032,0.003,111.0,112.0,107.0,13.4,1505.3,325.8,-0.7,1.9,2470.285,13.33,0.041,320.9
2020-01-25T05:16:03,42.805,6.029,-0.029,0.008,-0.033,111.0,113.0,106.0,13.3,1505.3,327.1,-0.7,1.8,2470.304,13.33,0.03,285.4
2020-01-25T05:19:03,42.805,6.029,-0.036,0.018,-0.004,111.0,113.0,107.0,13.3,1505.3,327.3,-0.7,1.8,2470.287,13.33,0.04,296.6
2020-01-25T05:22:03,42.805,6.029,-0.006,0.011,-0.005,112.0,114.0,107.0,13.3,1505.3,327.8,-0.7,1.9,2470.244,13.33,0.012,331.4
2020-01-25T05:25:03,42.805,6.029,-0.018,-0.016,-0.034,112.0,113.0,107.0,13.3,1505.3,325.0,-0.7,1.9,2470.3,13.33,0.024,228.4
2020-01-25T05:28:03,42.805,6.029,-0.007,0.027,0.019,113.0,113.0,108.0,13.4,1505.3,324.0,-0.7,1.8,2470.283,13.33,0.027,345.5
2020-01-25T05:31:03,42.805,6.029,-0.019,0.032,-0.026,112.0,114.0,108.0,13.4,1505.3,328.3,-0.7,1.8,2470.274,13.33,0.037,329.3
2020-01-25T05:34:03,42.805,6.029,-0.03,0.015,-0.011,111.0,113.0,108.0,13.4,1505.3,325.1,-0.7,1.8,2470.285,13.33,0.033,296.6
2020-01-25T05:37:03,42.805,6.029,-0.033,0.015,-0.023,113.0,115.0,107.0,13.4,1505.3,328.1,-0.7,1.9,2470.283,13.33,0.036,294.4
2020-01-25T05:40:03,42.805,6.029,-0.034,0.02,-0.025,113.0,115.0,108.0,13.4,1505.3,327.5,-0.7,1.9,2470.29,13.33,0.039,300.5
2020-01-25T05:43:03,42.805,6.029,-0.01,0.038,-0.016,112.0,116.0,107.0,13.3,1505.3,326.5,-0.7,1.8,2470.322,13.33,0.039,345.3
2020-01-25T05:46:03,42.805,6.029,-0.037,0.023,-0.007,112.0,114.0,107.0,13.4,1505.3,324.3,-0.7,1.8,2470.335,13.33,0.043,301.9
2020-01-25T05:49:03,42.805,6.029,-0.035,0.017,0.009,114.0,114.0,107.0,13.4,1505.3,325.0,-0.7,1.8,2470.244,13.33,0.038,295.9
2020-01-25T05:52:03,42.805,6.029,-0.03,0.018,-0.002,113.0,116.0,109.0,13.4,1505.3,325.7,-0.7,1.8,2470.298,13.33,0.034,301.0
2020-01-25T05:55:03,42.805,6.029,-0.032,0.032,0.043,111.0,115.0,108.0,13.4,1505.3,327.9,-0.7,1.8,2470.324,13.33,0.045,315.0
2020-01-25T05:58:03,42.805,6.029,-0.014,0.025,-0.022,113.0,115.0,108.0,13.3,1505.3,326.5,-0.7,1.8,2470.363,13.33,0.028,330.7
2020-01-25T06:04:03,42.805,6.029,-0.024,0.027,-0.006,113.0,117.0,109.0,13.4,1505.3,324.7,-0.7,1.8,2470.326,13.31,0.036,318.4
2020-01-25T06:07:03,42.805,6.029,-0.034,0.005,-0.019,112.0,115.0,109.0,13.4,1505.3,323.8,-0.7,1.8,2470.331,13.32,0.034,278.4
2020-01-25T06:10:03,42.805,6.029,-0.053,0.036,-0.012,113.0,117.0,109.0,13.4,1505.3,325.0,-0.7,1.8,2470.331,13.32,0.064,304.2
2020-01-25T06:13:03,42.805,6.029,-0.034,0.016,-0.014,113.0,116.0,109.0,13.4,1505.3,323.5,-0.7,1.8,2470.35,13.32,0.037,295.2
2020-01-25T06:16:03,42.805,6.029,-0.012,0.024,0.004,112.0,117.0,107.0,13.3,1505.3,327.1,-0.7,1.8,2470.323,13.33,0.026,333.4
2020-01-25T06:19:03,42.805,6.029,-0.041,0.023,-0.006,112.0,118.0,108.0,13.4,1505.3,326.6,-0.7,1.8,2470.339,13.33,0.047,299.3
2020-01-25T06:22:03,42.805,6.029,-0.038,0.025,0.01,112.0,118.0,108.0,13.4,1505.3,326.4,-0.7,1.8,2470.317,13.33,0.045,303.3
2020-01-25T06:25:03,42.805,6.029,-0.041,0.031,-0.026,113.0,117.0,108.0,13.4,1505.3,325.7,-0.7,1.8,2470.323,13.33,0.051,307.1
2020-01-25T06:28:03,42.805,6.029,-0.014,0.027,0.007,112.0,118.0,107.0,13.3,1505.3,324.8,-0.8,1.8,2470.332,13.33,0.03,332.6
2020-01-25T06:31:03,42.805,6.029,-0.043,0.029,-0.013,113.0,118.0,107.0,13.3,1505.3,326.2,-0.7,1.8,2470.371,13.33,0.051,304.0
2020-01-25T06:34:03,42.805,6.029,-0.02,0.011,0.0,113.0,118.0,107.0,13.4,1505.3,325.1,-0.7,1.9,2470.334,13.33,0.022,298.8
2020-01-25T06:37:03,42.805,6.029,-0.059,-0.004,-0.015,114.0,118.0,108.0,13.3,1505.3,326.9,-0.7,1.8,2470.336,13.33,0.059,266.1
2020-01-25T06:40:03,42.805,6.029,-0.034,0.016,0.0,112.0,119.0,109.0,13.4,1505.3,323.0,-0.7,1.9,2470.377,13.33,0.037,295.2
2020-01-25T06:43:03,42.805,6.029,-0.028,0.031,0.014,113.0,118.0,121.0,13.4,1505.3,323.0,-0.7,1.9,2470.378,13.33,0.041,317.9
2020-01-25T06:46:03,42.805,6.029,-0.034,0.01,-0.005,113.0,119.0,107.0,13.3,1505.3,325.5,-0.7,1.8,2470.383,13.33,0.035,286.4
2020-01-25T06:49:03,42.805,6.029,-0.034,0.033,0.012,112.0,119.0,108.0,13.4,1505.3,327.3,-0.7,1.9,2470.351,13.33,0.047,314.1
2020-01-25T06:52:03,42.805,6.029,-0.021,0.016,-0.027,112.0,118.0,108.0,13.4,1505.3,328.8,-0.7,1.9,2470.333,13.33,0.026,307.3
2020-01-25T06:55:03,42.805,6.029,-0.04,0.025,-0.029,114.0,118.0,107.0,13.4,1505.3,326.5,-0.7,1.9,2470.311,13.33,0.047,302.0
2020-01-25T06:58:03,42.805,6.029,-0.02,0.033,-0.003,113.0,118.0,107.0,13.4,1505.3,325.9,-0.7,1.9,2470.33,13.33,0.038,328.8
2020-01-25T07:04:03,42.805,6.029,0.002,0.027,-0.008,114.0,117.0,108.0,13.3,1505.3,327.8,-0.8,1.8,2470.38,13.31,0.027,4.2
2020-01-25T07:07:03,42.805,6.029,0.002,0.02,0.028,111.0,116.0,108.0,13.3,1505.3,326.5,-0.7,1.8,2470.322,13.32,0.02,5.7
2020-01-25T07:10:03,42.805,6.029,-0.037,0.021,-0.017,112.0,118.0,108.0,13.4,1505.3,328.1,-0.7,1.8,2470.355,13.32,0.042,299.6
2020-01-25T07:16:03,42.805,6.029,-0.028,0.03,0.005,112.0,118.0,106.0,13.3,1505.3,326.0,-0.7,1.8,2470.459,13.31,0.041,317.0
2020-01-25T07:19:03,42.805,6.029,-0.017,0.021,0.007,113.0,118.0,108.0,13.4,1505.3,326.0,-0.7,1.8,2470.367,13.32,0.027,321.0
2020-01-25T07:22:03,42.805,6.029,-0.033,0.003,-0.005,113.0,117.0,107.0,13.4,1505.3,323.3,-0.7,1.8,2470.39,13.32,0.033,275.2
2020-01-25T07:25:03,42.805,6.029,-0.032,0.04,-0.014,112.0,118.0,108.0,13.3,1505.3,325.6,-0.7,1.8,2470.375,13.32,0.051,321.3
2020-01-25T07:28:03,42.805,6.029,-0.049,0.025,-0.018,114.0,118.0,107.0,13.3,1505.3,327.3,-0.7,1.8,2470.37,13.33,0.055,297.0
2020-01-25T07:31:03,42.805,6.029,-0.066,0.031,-0.012,112.0,119.0,107.0,13.3,1505.3,327.0,-0.7,1.8,2470.351,13.33,0.072,295.2
2020-01-25T07:34:03,42.805,6.029,-0.034,0.02,-0.022,111.0,118.0,108.0,13.4,1505.3,326.7,-0.7,1.8,2470.355,13.33,0.039,300.5
2020-01-25T07:37:03,42.805,6.029,-0.025,0.034,-0.02,112.0,118.0,107.0,13.3,1505.3,327.3,-0.7,1.8,2470.357,13.33,0.042,323.7
2020-01-25T07:40:03,42.805,6.029,-0.047,0.033,-0.034,111.0,118.0,107.0,13.4,1505.3,326.5,-0.7,1.8,2470.37,13.33,0.057,305.1
2020-01-25T07:43:03,42.805,6.029,-0.041,0.042,0.0,111.0,120.0,107.0,13.4,1505.3,327.5,-0.7,1.8,2470.392,13.33,0.058,315.7
2020-01-25T07:46:03,42.805,6.029,-0.031,0.029,-0.024,111.0,120.0,107.0,13.4,1505.3,326.9,-0.7,1.8,2470.337,13.33,0.042,313.1
2020-01-25T07:49:03,42.805,6.029,-0.042,0.038,0.008,111.0,119.0,107.0,13.3,1505.3,326.3,-0.7,1.8,2470.391,13.33,0.056,312.1
2020-01-25T07:52:03,42.805,6.029,-0.042,0.015,0.011,115.0,118.0,108.0,13.4,1505.3,326.3,-0.7,1.8,2470.361,13.33,0.044,289.6
2020-01-25T07:55:03,42.805,6.029,-0.061,0.028,-0.015,113.0,119.0,108.0,13.4,1505.3,327.5,-0.7,1.8,2470.344,13.33,0.067,294.7
2020-01-25T07:58:03,42.805,6.029,-0.041,0.043,0.012,112.0,119.0,106.0,13.4,1505.3,323.8,-0.7,1.8,2470.383,13.33,0.059,316.4
2020-01-25T08:04:03,42.805,6.029,-0.067,0.023,-0.027,111.0,119.0,107.0,13.4,1505.3,324.6,-0.7,1.8,2470.372,13.31,0.07,288.9
2020-01-25T08:07:03,42.805,6.029,-0.06,0.029,-0.013,111.0,119.0,106.0,13.4,1505.3,326.0,-0.7,1.9,2470.381,13.32,0.066,295.8
2020-01-25T08:10:03,42.805,6.029,-0.03,0.02,-0.004,110.0,119.0,107.0,13.4,1505.3,327.0,-0.7,1.8,2470.378,13.32,0.036,303.7
2020-01-25T08:13:03,42.805,6.029,-0.04,0.036,-0.028,111.0,118.0,107.0,13.4,1505.3,328.4,-0.7,1.9,2470.385,13.32,0.053,312.0
2020-01-25T08:16:03,42.805,6.029,-0.051,0.025,-0.015,111.0,120.0,106.0,13.4,1505.3,323.4,-0.7,1.8,2470.39,13.33,0.056,296.1
2020-01-25T08:19:03,42.805,6.029,-0.056,0.038,-0.015,111.0,121.0,106.0,13.4,1505.3,323.5,-0.7,1.8,2470.402,13.33,0.067,304.2
2020-01-25T08:22:03,42.805,6.029,-0.048,0.036,0.002,110.0,120.0,107.0,13.3,1505.3,324.0,-0.7,1.9,2470.412,13.33,0.06,306.9
2020-01-25T08:25:03,42.805,6.029,-0.035,0.011,0.007,112.0,120.0,106.0,13.3,1505.3,326.2,-0.7,1.9,2470.343,13.33,0.036,287.4
2020-01-25T08:28:03,42.805,6.029,-0.041,0.04,-0.008,111.0,119.0,106.0,13.4,1505.3,323.7,-0.7,1.8,2470.338,13.33,0.057,314.3
2020-01-25T08:31:03,42.805,6.029,-0.033,0.001,0.007,111.0,119.0,105.0,13.4,1505.3,325.4,-0.7,1.8,2470.393,13.33,0.033,271.7
2020-01-25T08:34:03,42.805,6.029,-0.023,0.044,0.003,110.0,119.0,106.0,13.4,1505.3,326.0,-0.7,1.8,2470.383,13.33,0.049,332.4
2020-01-25T08:37:03,42.805,6.029,-0.056,0.056,0.005,110.0,120.0,105.0,13.3,1505.3,327.4,-0.8,1.8,2470.4,13.33,0.079,315.0
2020-01-25T08:40:03,42.805,6.029,-0.024,0.033,0.003,109.0,121.0,105.0,13.4,1505.3,326.9,-0.7,1.8,2470.339,13.33,0.04,324.0
2020-01-25T08:43:03,42.805,6.029,-0.036,0.008,0.004,110.0,119.0,106.0,13.3,1505.3,326.3,-0.7,1.8,2470.358,13.33,0.036,282.5
2020-01-25T08:46:03,42.805,6.029,-0.043,0.033,-0.012,110.0,118.0,106.0,13.3,1505.3,323.0,-0.7,1.8,2470.354,13.33,0.054,307.5
2020-01-25T08:49:03,42.805,6.029,-0.035,0.012,0.021,110.0,120.0,105.0,13.4,1505.3,327.5,-0.7,1.9,2470.355,13.33,0.037,288.9
2020-01-25T08:52:03,42.805,6.029,-0.072,0.018,0.015,110.0,118.0,106.0,13.3,1505.3,326.6,-0.7,1.8,2470.361,13.33,0.074,284.0
2020-01-25T08:55:03,42.805,6.029,-0.063,0.041,-0.017,109.0,120.0,105.0,13.4,1505.3,328.1,-0.7,1.8,2470.395,13.33,0.075,303.1
2020-01-25T08:58:03,42.805,6.029,-0.042,0.024,0.018,109.0,118.0,107.0,13.3,1505.3,326.4,-0.7,1.8,2470.362,13.33,0.048,299.7
2020-01-25T09:04:03,42.805,6.029,-0.033,0.046,-0.036,109.0,120.0,105.0,13.3,1505.3,325.9,-0.7,1.8,2470.391,13.31,0.056,324.3
2020-01-25T09:07:03,42.805,6.029,-0.012,0.044,0.032,108.0,118.0,105.0,13.3,1505.3,324.2,-0.7,1.9,2470.413,13.31,0.045,344.7
2020-01-25T09:10:03,42.805,6.029,-0.046,0.047,0.005,108.0,118.0,104.0,13.3,1505.3,326.8,-0.7,1.9,2470.36,13.32,0.065,315.6
2020-01-25T09:13:03,42.805,6.029,-0.054,0.02,-0.003,110.0,118.0,104.0,13.3,1505.3,326.6,-0.7,1.8,2470.325,13.32,0.057,290.3
2020-01-25T09:16:03,42.805,6.029,-0.044,0.019,-0.016,110.0,118.0,105.0,13.3,1505.3,323.2,-0.7,1.8,2470.374,13.33,0.047,293.4
2020-01-25T09:19:03,42.805,6.029,-0.05,0.029,-0.041,108.0,118.0,104.0,13.3,1505.3,327.2,-0.7,1.8,2470.381,13.33,0.057,300.1
2020-01-25T09:22:03,42.805,6.029,-0.056,0.031,-0.006,108.0,118.0,103.0,13.4,1505.3,327.3,-0.7,1.8,2470.367,13.33,0.064,299.0
2020-01-25T09:25:03,42.805,6.029,-0.058,0.032,-0.018,108.0,118.0,104.0,13.4,1505.3,325.0,-0.7,1.8,2470.324,13.33,0.066,298.9
2020-01-25T09:28:03,42.805,6.029,-0.029,0.038,-0.018,108.0,118.0,104.0,13.4,1505.3,325.5,-0.7,1.9,2470.342,13.33,0.047,322.7
2020-01-25T09:31:03,42.805,6.029,-0.03,0.032,-0.01,108.0,118.0,104.0,13.3,1505.3,323.8,-0.7,1.8,2470.356,13.33,0.043,316.9
2020-01-25T09:34:03,42.805,6.029,-0.047,0.041,0.004,108.0,118.0,104.0,13.4,1505.3,328.1,-0.7,1.8,2470.349,13.33,0.062,311.1
2020-01-25T09:37:03,42.805,6.029,-0.053,0.052,-0.043,108.0,119.0,105.0,13.3,1505.3,325.1,-0.7,1.8,2470.361,13.33,0.074,314.5
2020-01-25T09:40:03,42.805,6.029,-0.062,0.026,-0.029,106.0,119.0,105.0,13.4,1505.3,324.1,-0.7,1.8,2470.353,13.33,0.067,292.7
2020-01-25T09:43:03,42.805,6.029,-0.074,0.024,-0.007,107.0,117.0,103.0,13.3,1505.3,323.5,-0.7,1.8,2470.359,13.33,0.077,288.0
2020-01-25T09:46:03,42.805,6.029,-0.041,0.051,-0.001,109.0,120.0,104.0,13.4,1505.3,328.0,-0.7,1.8,2470.315,13.33,0.065,321.2
2020-01-25T09:49:03,42.805,6.029,-0.027,0.052,0.01,109.0,117.0,104.0,13.3,1505.3,326.0,-0.7,1.8,2470.366,13.33,0.058,332.6
2020-01-25T09:52:03,42.805,6.029,-0.033,0.037,0.015,109.0,119.0,104.0,13.4,1505.3,328.2,-0.7,1.8,2470.37,13.33,0.049,318.3
2020-01-25T09:55:03,42.805,6.029,-0.029,0.041,-0.016,109.0,117.0,105.0,13.4,1505.3,326.7,-0.7,1.8,2470.31,13.33,0.05,324.7
2020-01-25T09:58:03,42.805,6.029,-0.063,0.031,-0.033,107.0,120.0,103.0,13.4,1505.3,327.6,-0.7,1.8,2470.33,13.33,0.07,296.2